Other Public Products
Issued by NWS Grand Forks, ND

Home | Current Version | Previous Version | Graphics & Text | Print | Product List | Glossary On
Versions: 1 2 3 4 5 6 7 8 9 10 11 12 13 14 15 16 17 18 19 20 21 22 23 24 25 26 27 28 29 30 31 32 33 34 35 36 37 38 39 40 41 42 43 44 45 46 47 48 49 50
000
FPUS83 KFGF 250631
OPUFGF
PRAIRIE TO PINES WEATHER ROUNDUP
NATIONAL WEATHER SERVICE EASTERN NORTH DAKOTA/GRAND FORKS ND
100 AM CDT MON MAY 25 2015

 **SATELLITE DATA USED TO AUGMENT SKY COVER AT AUTOMATED STATIONS**
 *****  WEATHER ACROSS EASTERN NORTH DAKOTA  *****

CITY           SKY/WX    TMP DP  RH WIND       PRES   REMARKS
GRAND FORKS    CLOUDY    58  51  78 N3        29.85F
6HR MIN TEMP:  57; 6HR MAX TEMP:  74;

GRAND FORKS AF CLOUDY    53  50  89 N2        29.86F
GRAND CITY NWS   N/A     57 N/A N/A MISG        N/A
BUXTON           N/A     62  56  79 NE2         N/A
DEVILS LAKE    CLOUDY    57  48  72 CALM      29.87F
6HR MIN TEMP:  57; 6HR MAX TEMP:  72;

FARGO          CLOUDY    62  54  74 E5        29.84F
6HR MIN TEMP:  62; 6HR MAX TEMP:  69;

WAHPETON ARPT  CLOUDY    55  54  94 NE6       29.81F
$$

 *****  WEATHER ACROSS CENTRAL AND WESTERN NORTH DAKOTA  *****

CITY           SKY/WX    TMP DP  RH WIND       PRES   REMARKS
JAMESTOWN      LGT RAIN  57  55  93 NW3       29.86F
6HR MIN TEMP:  57; 6HR MAX TEMP:  64; 6HR PCP: TRACE;

BISMARCK       LGT RAIN  57  54  89 E6        29.90S
6HR MIN TEMP:  57; 6HR MAX TEMP:  65; 6HR PCP: TRACE;

MINOT          CLOUDY    56  47  71 CALM      29.89F
6HR MIN TEMP:  54; 6HR MAX TEMP:  72;

MINOT AFB      MOCLDY    51  49  94 CALM      29.88F
6HR MIN TEMP:  51; 6HR MAX TEMP:  74;

GARRISON         N/A     60  51  72 CALM      29.89F
6HR MIN TEMP:  59; 6HR MAX TEMP:  69;

WILLISTON      MOCLDY    48  44  86 N3        29.91S
6HR MIN TEMP:  48; 6HR MAX TEMP:  75;

DICKINSON      CLOUDY    56  48  74 N3        29.88F
6HR MIN TEMP:  55; 6HR MAX TEMP:  64;

HETTINGER      CLOUDY    55  49  80 E7        29.89F
6HR MIN TEMP:  55; 6HR MAX TEMP:  61;

$$

 *****  OTHER OBSERVATIONS NORTHEAST NORTH DAKOTA  *****

CITY           SKY/WX    TMP DP  RH WIND       PRES   REMARKS
WALHALLA         N/A     54  52  94 CALM      29.88F
LANGDON        FAIR      54  46  76 N5        29.90F
CAVALIER       FAIR      57  48  72 NW5       29.86F
GRAFTON        FAIR      57  52  82 CALM      29.86F
CANDO          FAIR      55  54  94 N3        29.88F
FORT TOTTEN      N/A     59  48  67 CALM      29.95S
ROLLA          CLOUDY    54  46  76 NW5       29.91F
RUGBY          NOT AVBL
 ***** THE ABOVE OBSERVATIONS ARE NON NWS ARE NOT QUALITY
        CONTROLLED AND MAY MIS-REPORT RAIN FOR SNOW...
$$

 *****  OTHER OBSERVATIONS SOUTHEAST NORTH DAKOTA *****

CITY           SKY/WX    TMP DP  RH WIND       PRES   REMARKS
COOPERSTOWN    NOT AVBL
VALLEY CITY    LGT RAIN  57  57 100 CALM      29.86F
OAKES          LGT RAIN  55  55 100 NE8       29.83F
GWINNER        NOT AVBL
SHEYENNE NWR     N/A     57  55  93 NE2       29.95
BUFFALO        NOT AVBL
WYNDMERE         N/A     57  57 100 NE6         N/A
 ***** THE ABOVE OBSERVATIONS ARE NON NWS ARE NOT QUALITY
       CONTROLLED AND MAY MIS-REPORT RAIN FOR SNOW...
$$

  *****  WEATHER ACROSS NORTHERN MINNESOTA  *****

CITY           SKY/WX    TMP DP  RH WIND       PRES   REMARKS
FLAG ISLAND    CLOUDY    57  55  94 N6        29.86F
WARROAD        CLOUDY    57  52  82 CALM      29.87F
ROSEAU         CLOUDY    61  52  72 CALM      29.87F
HALLOCK        MOCLDY    57  48  72 CALM      29.86F
THF RVR FALLS  CLOUDY    63  48  59 CALM      29.86F
6HR MIN TEMP:  61; 6HR MAX TEMP:  72;

HALSTAD          N/A     60  50  70 CALM        N/A
FOSSTON        CLOUDY    57  46  67 CALM      29.86F
BAUDETTE       CLOUDY    57  51  80 CALM      29.87F
6HR MIN TEMP:  57; 6HR MAX TEMP:  73;

WASKISH        CLOUDY    55  54  94 CALM      29.86F
CROOKSTON      CLOUDY    63  48  59 E6        29.86F
$$
  *****  WEATHER ACROSS CENTRAL AND WEST MINNESOTA  *****

CITY           SKY/WX    TMP DP  RH WIND       PRES   REMARKS
BEMIDJI        CLOUDY    58  51  79 CALM      29.86F
PARK RAPIDS    LGT RAIN  58  54  86 NE7       29.85F
6HR MIN TEMP:  58; 6HR MAX TEMP:  68; 6HR PCP:  0.01;

WADENA         RAIN      55  54  94 NE8       29.81F
DETROIT LAKES  DRIZZLE   55  54  94 E5        29.85F
MOORHEAD       DRIZZLE   59  55  88 E5        29.84F
FERGUS FALLS   DRIZZLE   57  57 100 E9        29.81F
ELBOW LAKE     DRIZZLE   57  56  98 NE7       29.78F
6HR MIN TEMP:  57; 6HR MAX TEMP:  59; 6HR PCP:  0.14;

MORRIS MN      DRIZZLE   57  57 100 NE7       29.76F
STAPLES        LGT RAIN  55  55 100 NE5       29.81F
WHEATON        DRIZZLE   55  55 100 N5        29.81F
$$
  *****  WEATHER ELSEWHERE ACROSS MINNESOTA  *****

CITY           SKY/WX    TMP DP  RH WIND       PRES   REMARKS
DULUTH         LGT RAIN  58  56  93 E10       29.87F FOG
6HR MIN TEMP:  58; 6HR MAX TEMP:  66; 6HR PCP:  0.09;

INTRNTL FALLS  CLOUDY    58  49  72 NW3       29.86F
6HR MIN TEMP:  53; 6HR MAX TEMP:  74;

ELY            CLOUDY    57  46  67 S3        29.90S
CLOQUET        LGT RAIN  57  55  94 E7        29.85F
BRAINERD       LGT RAIN  57  56  96 NE8       29.83F FOG
6HR MIN TEMP:  57; 6HR MAX TEMP:  60; 6HR PCP:  0.03;

HIBBING        LGT RAIN  55  52  89 CALM      29.89F
6HR MIN TEMP:  55; 6HR MAX TEMP:  67; 6HR PCP: TRACE;

ALEXANDRIA     LGT RAIN  57  57 100 NE12      29.80F
6HR MIN TEMP:  57; 6HR MAX TEMP:  59; 6HR PCP:  0.11;

SAINT CLOUD    LGT RAIN  57  56  96 E6        29.77F
6HR MIN TEMP:  57; 6HR MAX TEMP:  58; 6HR PCP:  0.25;

MINNEAPOLIS    LGT RAIN  58  57  97 E9        29.75F
6HR MIN TEMP:  58; 6HR MAX TEMP:  60; 6HR PCP:  0.23;

$$

  *****  WEATHER ACROSS SOUTH DAKOTA  *****

CITY           SKY/WX    TMP DP  RH WIND       PRES   REMARKS
SIOUX FALLS    CLOUDY    59  58  96 N5        29.75F
6HR MIN TEMP:  59; 6HR MAX TEMP:  61; 6HR PCP: TRACE;

BROOKINGS      CLOUDY    57  55  94 N7        29.77F
WATERTOWN      LGT RAIN  57  55  93 E3        29.77F FOG
6HR MIN TEMP:  57; 6HR MAX TEMP:  58; 6HR PCP:  0.38;

HURON          CLOUDY    57  57 100 NE7       29.77F FOG
6HR MIN TEMP:  57; 6HR MAX TEMP:  61;

SISSETON         N/A     58  58 100 NE8       29.79F
ABERDEEN       LGT RAIN  57  56  96 N7        29.81F FOG
6HR MIN TEMP:  57; 6HR MAX TEMP:  63; 6HR PCP:  0.29;

MITCHELL       CLOUDY    59  59 100 NE3       29.77F
PIERRE         CLOUDY    57  57 100 E3        29.79F FOG
6HR MIN TEMP:  57; 6HR MAX TEMP:  59; 6HR PCP:  0.02;

MOBRIDGE       LGT RAIN  57  57 100 NE9       29.81F
RAPID CITY     MOCLDY    53  52  96 N8        29.86S
6HR MIN TEMP:  53; 6HR MAX TEMP:  57; 6HR PCP:  0.03;

$$

  *****  SOME WEATHER IN NEARBY STATES *****

CITY           SKY/WX    TMP DP  RH WIND       PRES   REMARKS
GLASGOW MT     PTCLDY    58  43  57 SE6       29.91S
6HR MIN TEMP:  58; 6HR MAX TEMP:  74;

GREAT FALLS MT CLEAR     50  42  74 E6        29.95F
6HR MIN TEMP:  50; 6HR MAX TEMP:  64;

CHEYENNE WY    CLOUDY    45  39  79 N8        29.89F
6HR MIN TEMP:  44; 6HR MAX TEMP:  53;

SCOTTSBLUFF NE CLOUDY    54  50  86 E10       29.85S
6HR MIN TEMP:  53; 6HR MAX TEMP:  65; 6HR PCP:  0.08;

OMAHA NE       CLOUDY    66  60  81 S5        29.77F
6HR MIN TEMP:  66; 6HR MAX TEMP:  70;

DES MOINES IA  LGT RAIN  65  62  90 S7        29.77F
6HR MIN TEMP:  65; 6HR MAX TEMP:  71; 6HR PCP: TRACE;

DAVENPORT IA   CLOUDY    67  64  90 S10       29.82F
6HR MIN TEMP:  67; 6HR MAX TEMP:  72; 6HR PCP:  0.23;

CHICAGO IL     MOCLDY    70  62  76 S12G20    29.89F
6HR MIN TEMP:  63; 6HR MAX TEMP:  70; 6HR PCP: TRACE;

EAU CLAIRE WI  LGT RAIN  57  55  93 E8        29.79F
6HR MIN TEMP:  57; 6HR MAX TEMP:  58; 6HR PCP:  0.18;

LA CROSSE WI   LGT RAIN  60  58  92 E5        29.77F FOG
6HR MIN TEMP:  60; 6HR MAX TEMP:  61; 6HR PCP:  0.25;

$$

  *****  SOME NATIONAL WEATHER *****

CITY           SKY/WX    TMP DP  RH WIND       PRES   REMARKS


USA.gov is the U.S. government's official web portal to all federal, state and local government web resources and services.